Hourly Data Report for June 25, 2021

ATIKOKAN (AUT)
ONTARIO
Current Station Operator: ECCC - MSC

48°45'40.000" N
91°37'41.000" W
389.30 m
6020LPQ
71747
WCH

Download Data

Hourly Data (June 2021)
Hourly Data Report for June 25, 2021
TIME
LST
Temp Definition
°C
Dew Point Definition
°C
Rel Hum Definition
%
Precip. Amount Definition
mm

Wind Dir Definition
10's deg

Wind Spd Definition
km/h
Visibility Definition
km
Stn Press Definition
kPa
Hmdx Definition


Wind Chill Definition


Weather Definition


00:00 12.3 11.9 97 0.0   0   96.70     LegendNANA
01:00 11.8 11.4 97 0.0   0   96.72     LegendNANA
02:00 11.3 11.0 98 0.0 0 1   96.75     LegendNANA
03:00 10.8 10.5 98 0.0   0   96.80     LegendNANA
04:00 9.9 9.6 98 0.0 6 2   96.77     LegendNANA
05:00 10.1 9.8 98 0.0 5 1   96.77     LegendNANA
06:00 12.1 11.7 98 0.0   0   96.76     LegendNANA
07:00 18.1 13.6 75 0.0 16 4   96.73     LegendNANA
08:00 20.6 10.7 53 0.0 16 1   96.80     LegendNANA
09:00 22.1 7.7 40 0.0 1 3   96.78     LegendNANA
10:00 22.9 9.8 43 0.0 26 7   96.79     LegendNANA
11:00 24.3 11.1 44 0.0 33 6   96.75 26   LegendNANA
12:00 24.2 9.2 39 0.0 33 6   96.73 25   LegendNANA
13:00 24.8 8.4 35 0.0 30 6   96.67 25   LegendNANA
14:00 26.1 8.2 32 0.0 29 4   96.61 27   LegendNANA
15:00 25.2 10.5 40 0.0 28 4   96.60 27   LegendNANA
16:00 26.6 11.4 39 0.0 36 4   96.59 29   LegendNANA
17:00 25.6 9.4 36 0.0 2 3   96.56 27   LegendNANA
18:00 24.8 11.1 42 0.0 2 4   96.53 27   LegendNANA
19:00 21.8 10.4 48 0.0   0   96.54     LegendNANA
20:00 18.6 11.2 62 0.0   0   96.55     LegendNANA
21:00 15.7 12.5 82 0.0 5 1   96.61     LegendNANA
22:00 14.1 12.3 89 0.0   0   96.58     LegendNANA
23:00 14.1 12.7 92 0.0 0 1   96.57     LegendNANA

Notes on Data Quality.

Legend

  • E = Estimated
  • M = Missing
  • NA = Not Available*
  • [empty] = Indicates an unobserved value
Date modified: